Theta_e
334 334 333 333 332 332 333 334 334 334 333 333 333 332 331 330 330 330 330 330 330 329 327 324 317 314 314 313 313 313 312 312 312 312 312 311 310 310 309 308 308 307
334 334 333 332 331 331 332 334 335 334 333 333 333 331 330 330 330 330 330 330 329 328 325 321 315 313 313 313 313 313 312 312 312 311 311 309 309 308 308 307 307 307
333 334 333 332 331 331 332 334 334 334 333 332 332 331 330 330 330 330 330 329 329 327 323 318 314 313 313 313 312 312 311 311 311 310 309 308 308 308 307 307 306 305
333 333 332 331 332 333 333 333 333 333 333 331 331 330 330 330 329 329 328 328 328 326 320 315 313 313 313 312 312 312 311 310 310 309 308 308 307 307 306 305 304 303
333 333 331 331 333 334 334 334 333 332 332 331 331 330 330 329 328 328 327 326 326 324 317 313 313 312 312 312 311 310 309 309 308 308 308 307 307 306 304 302 301 300
332 331 331 331 333 334 334 333 333 332 331 331 331 330 329 328 327 327 326 326 325 322 315 312 313 312 312 311 310 309 308 307 308 308 308 307 305 303 301 300 299 299
331 332 332 331 331 333 334 333 332 331 331 331 331 329 328 327 327 327 326 326 325 319 313 312 312 312 311 310 308 307 307 307 308 308 307 304 302 300 299 298 298 298
333 334 333 333 332 332 333 331 330 331 331 331 329 328 327 327 327 327 326 325 322 316 312 312 312 311 310 309 307 307 307 308 308 307 304 302 300 298 298 298 297 298
335 335 334 334 333 332 332 330 329 331 330 329 328 328 328 328 327 327 325 323 318 313 312 312 311 310 309 307 306 307 307 308 307 305 302 299 298 298 297 297 297 297
334 334 334 333 332 332 331 330 330 330 329 328 328 329 328 328 327 325 323 318 314 312 312 311 310 309 308 307 307 307 308 307 304 302 299 298 298 297 297 297 297 297
333 334 333 332 332 331 330 330 330 330 329 328 329 328 328 327 325 322 318 314 312 312 312 310 309 308 307 306 307 307 307 305 301 299 298 297 297 296 296 297 297 296
333 334 333 332 331 331 330 330 329 329 329 328 328 327 326 325 322 318 314 312 312 312 310 309 308 307 307 307 307 306 304 301 299 298 297 297 296 296 296 296 296 296
333 333 332 331 330 330 330 329 329 328 328 327 327 326 325 322 318 314 313 312 312 311 310 309 308 306 306 307 306 304 301 299 298 297 297 296 296 296 296 296 296 296
331 332 331 330 329 329 329 328 328 327 327 327 326 325 322 318 314 313 312 312 311 310 309 308 307 306 306 305 304 301 299 298 297 296 296 296 296 296 296 296 296 296
331 331 330 329 329 329 328 328 327 327 327 326 324 321 318 314 313 312 312 311 310 310 308 307 306 306 304 303 301 299 298 297 296 296 296 295 295 295 295 295 295 296
330 330 329 329 328 328 327 327 326 326 325 323 320 317 314 313 312 312 311 311 310 309 307 306 305 304 302 300 299 298 297 296 296 295 295 295 295 295 295 295 295 295
329 328 328 328 328 328 327 325 324 323 321 318 316 314 312 312 312 311 311 310 309 307 306 305 303 302 300 299 298 297 296 296 296 295 295 295 295 295 294 294 294 294
328 328 328 327 327 326 325 323 322 320 317 315 313 312 312 311 311 310 310 308 307 306 305 303 302 300 299 298 297 296 296 295 295 295 295 295 295 294 294 294 294 294
327 327 327 326 326 324 322 320 318 316 314 313 312 312 311 311 310 309 308 308 307 305 303 301 300 299 298 297 296 296 295 295 295 294 294 295 294 294 294 294 294 294
326 326 326 325 324 321 318 316 315 313 313 312 311 311 310 310 309 308 308 307 305 303 301 300 299 298 297 296 296 295 295 294 294 294 294 294 294 294 294 294 294 294
325 324 324 323 321 318 314 313 313 312 312 311 310 310 310 309 308 308 307 305 303 301 300 299 298 297 296 296 295 295 294 294 294 294 294 294 294 294 294 294 293 294
324 322 321 321 319 316 313 312 312 312 312 311 309 309 309 308 308 307 306 304 301 300 299 298 297 296 296 295 295 294 294 294 294 294 294 294 294 294 294 294 294 294
323 321 320 319 317 314 312 312 312 311 311 310 308 308 308 308 307 306 305 302 300 299 298 297 296 296 295 295 295 294 294 294 294 294 294 294 293 293 294 293 294 294
321 320 319 318 315 314 312 312 311 311 311 309 308 307 308 307 307 305 303 300 298 298 297 297 296 295 295 295 294 294 294 294 294 294 294 294 294 293 294 294 293 293
319 318 317 316 314 313 312 311 311 311 310 308 307 307 307 307 306 303 300 299 297 297 296 296 296 295 295 294 294 294 294 294 294 294 293 294 293 293 294 294 293 294
317 315 315 314 313 312 312 311 310 310 309 307 306 307 307 306 304 301 299 298 297 296 296 296 295 295 294 294 294 294 294 294 294 294 293 293 293 293 293 293 293 293
Wind_Speed
18 16 14 14 12 9 9 9 9 9 12 13 10 8 8 6 4 2 2 3 5 7 8 7 6 5 5 6 7 8 9 9 9 10 10 9 9 9 9 9 10 11
17 13 13 13 11 11 11 10 9 11 14 12 9 7 6 4 3 3 2 4 6 8 8 7 5 5 5 7 8 9 10 9 9 9 9 8 8 9 9 10 10 11
18 15 14 13 12 13 13 12 12 14 14 11 8 6 4 3 3 2 2 5 7 9 8 5 4 5 6 8 9 10 10 9 8 9 8 8 8 9 9 10 10 10
17 16 14 13 13 13 14 15 15 16 14 10 8 6 4 3 2 1 3 5 8 9 7 5 4 6 8 10 10 10 9 8 8 8 8 8 8 9 9 10 10 10
15 15 12 12 13 14 16 17 18 17 14 9 8 7 4 2 0 2 4 6 8 8 6 4 6 8 9 10 9 9 8 7 8 8 7 8 8 9 10 10 10 10
16 15 13 12 14 16 17 20 20 18 13 10 10 7 3 1 1 3 5 7 8 7 5 6 8 9 10 10 9 8 7 7 7 8 7 8 9 9 10 11 11 11
19 17 16 15 16 17 18 22 22 17 12 12 9 5 2 1 1 3 6 8 7 5 5 7 9 9 9 9 8 8 7 6 7 8 8 9 9 10 11 12 11 12
20 18 17 17 19 20 20 23 22 16 13 10 6 3 1 0 2 4 6 7 5 3 7 9 9 9 9 9 8 7 6 7 8 8 8 9 10 11 13 12 12 14
19 17 17 18 20 22 22 23 21 15 10 6 3 3 2 1 3 4 5 5 3 6 9 10 9 9 9 8 7 7 7 7 8 8 9 10 11 13 13 13 13 15
15 15 17 18 20 22 22 21 17 11 7 5 4 3 2 3 3 4 4 2 5 9 11 11 10 10 9 7 7 7 7 7 8 9 10 11 13 13 14 13 15 17
12 14 16 17 19 21 20 17 12 8 7 7 5 4 3 3 4 2 1 6 10 11 12 11 10 9 8 7 8 8 7 8 9 11 11 12 14 14 14 15 17 19
14 16 16 17 19 19 17 14 10 9 8 6 5 5 4 4 3 2 6 10 12 13 12 11 10 9 8 8 9 9 9 10 11 11 12 13 14 15 16 17 18 19
17 18 17 18 18 16 14 13 11 9 7 6 6 6 5 4 3 7 11 13 13 13 12 10 8 8 8 9 10 10 11 11 11 11 12 14 15 16 17 18 19 20
20 19 18 18 17 16 15 12 10 8 7 8 8 7 5 5 7 10 13 14 14 12 10 9 9 9 10 10 11 12 12 12 12 12 13 15 16 18 19 19 20 20
23 21 19 18 17 15 12 10 9 9 10 10 9 7 7 9 11 12 14 15 13 11 10 10 11 12 12 12 12 13 13 13 13 14 15 16 18 19 20 20 20 20
24 22 20 19 17 13 11 11 11 11 11 10 9 9 11 13 14 15 14 13 11 11 11 12 13 14 14 13 13 14 14 13 14 16 16 18 19 19 20 20 20 20
24 23 21 18 15 13 12 12 11 11 10 10 11 13 15 16 17 16 14 12 11 11 12 14 15 15 15 14 14 14 14 14 15 17 18 19 19 19 19 20 20 20
23 22 19 17 15 13 12 11 10 10 11 13 14 16 17 17 17 15 14 13 12 12 14 15 16 16 15 15 15 14 14 15 17 18 19 19 18 19 19 20 20 20
24 21 18 17 14 12 10 9 10 12 14 16 17 17 17 17 16 16 15 14 13 14 16 17 17 16 15 15 15 15 15 16 18 19 19 18 18 18 19 20 20 20
22 19 17 16 14 13 12 11 13 15 16 17 17 18 18 18 18 18 16 14 14 16 18 18 18 17 15 15 15 16 16 17 18 19 18 18 18 18 19 19 19 19
18 17 17 15 14 15 15 15 16 17 18 18 18 19 19 20 19 18 16 16 17 18 19 19 18 17 15 15 16 16 16 17 18 18 18 18 18 18 18 19 19 19
19 18 17 16 16 17 18 18 19 19 19 19 20 20 20 20 19 17 16 18 18 18 19 20 19 17 16 16 16 16 16 17 18 18 18 17 17 17 17 18 18 18
21 20 17 17 18 20 20 20 20 19 19 19 21 22 22 20 19 17 17 18 20 20 19 20 20 18 17 16 16 16 16 16 17 17 17 17 16 17 17 16 17 17
21 19 18 18 20 21 21 20 20 19 19 19 21 22 23 21 18 18 19 19 20 20 19 19 19 18 17 16 16 15 15 16 16 15 16 16 16 16 15 15 15 16
19 17 18 20 21 21 21 20 20 20 19 20 22 23 22 21 19 20 21 20 20 19 18 18 18 18 17 16 16 15 15 15 14 14 15 15 15 14 14 14 14 14
17 17 19 21 21 22 21 20 19 19 19 22 24 24 23 21 21 21 22 22 21 19 18 17 18 18 17 16 15 15 14 14 13 13 13 14 14 13 13 12 12 12
Wind_Direction
210 209 206 212 212 212 220 221 217 215 211 200 185 177 173 170 169 143 65 20 358 348 350 353 359 8 16 26 33 37 39 38 33 32 31 24 20 21 21 21 24 24
211 208 212 217 213 212 216 214 211 210 204 192 181 179 171 157 132 99 52 2 352 356 2 8 12 21 34 46 51 50 47 42 38 36 34 28 27 29 27 28 29 28
209 212 221 221 214 214 213 204 202 204 198 185 181 186 166 140 120 86 19 357 356 1 9 16 24 41 57 64 62 55 51 46 42 42 39 34 34 33 31 32 31 28
214 221 224 221 217 213 209 202 194 196 193 183 181 180 167 160 140 32 353 357 356 2 15 30 48 68 75 71 65 58 54 50 47 49 45 38 39 37 34 36 33 31
217 222 216 217 218 204 200 201 193 188 187 182 179 173 173 185 65 2 352 358 357 4 26 56 73 82 79 72 68 62 58 52 52 57 52 43 43 42 41 43 41 39
213 212 199 202 211 200 196 200 192 181 177 177 175 170 173 184 26 1 354 358 357 8 47 82 87 87 81 74 70 63 57 56 63 65 55 47 51 52 52 51 49 50
206 201 187 188 203 203 198 196 188 175 170 173 171 168 174 149 16 351 349 351 355 22 81 98 96 92 84 78 71 62 61 68 75 70 56 55 60 61 60 58 58 61
201 196 186 185 194 198 196 192 185 171 165 168 166 170 175 328 333 337 344 347 1 69 109 109 104 96 87 81 72 68 76 82 79 69 61 66 68 67 67 64 64 67
199 194 189 186 187 190 191 189 180 164 159 167 184 196 198 292 309 328 340 351 50 115 121 115 107 96 87 82 79 82 88 85 78 74 72 75 74 71 71 69 70 72
196 195 193 187 183 185 186 183 172 160 168 191 204 218 248 281 297 327 343 45 116 128 125 115 105 95 88 86 91 95 92 85 83 84 82 81 78 77 77 76 76 77
200 201 195 188 186 185 181 177 172 173 187 195 210 241 263 279 297 325 86 126 131 131 123 113 104 97 94 99 104 101 94 91 91 90 86 84 82 81 82 82 80 79
203 198 190 188 188 182 177 178 182 184 188 198 224 245 259 277 277 159 139 138 135 128 118 110 104 101 104 111 112 106 100 97 94 91 88 86 86 86 85 83 82 79
199 190 182 183 184 182 182 186 185 185 195 217 231 239 254 256 192 152 144 140 133 125 117 112 108 110 116 120 117 110 105 100 95 93 92 91 90 89 86 82 80 78
188 184 180 181 185 187 188 188 188 198 217 231 235 239 234 196 164 154 147 139 132 127 124 121 119 121 125 126 120 111 106 103 99 97 96 95 93 89 85 81 78 76
180 180 179 183 188 188 189 196 207 218 227 231 231 221 191 168 159 156 149 141 137 134 131 128 128 129 128 124 116 110 107 105 103 102 100 98 94 89 85 81 77 75
178 180 181 184 188 192 204 213 213 216 221 220 207 182 170 164 157 152 147 144 143 140 136 135 135 132 127 121 115 110 108 106 105 106 104 100 96 91 87 83 79 76
180 182 182 184 189 199 209 210 209 212 209 195 178 168 164 159 153 149 147 146 144 141 139 139 137 132 127 123 116 109 107 107 109 110 107 103 98 94 90 85 82 80
182 182 184 188 195 204 208 208 208 203 188 174 167 164 160 155 152 152 150 147 145 143 142 142 139 133 129 123 115 110 108 109 112 112 108 104 100 96 92 87 84 81
181 185 189 191 195 199 197 199 196 182 170 164 162 160 159 156 155 154 151 149 148 147 147 145 140 134 129 122 115 112 112 112 114 112 109 106 102 98 94 90 86 83
183 190 192 189 190 189 182 180 180 170 163 162 161 161 161 158 156 156 153 151 151 152 151 146 139 135 130 123 118 114 114 115 115 112 110 107 104 99 95 92 88 85
190 193 190 187 189 188 178 172 172 167 163 164 162 161 161 158 157 158 155 152 154 156 152 145 139 136 131 125 121 117 116 117 115 113 111 108 103 100 96 92 88 85
196 193 190 188 188 184 173 167 168 166 165 164 161 161 161 160 160 160 156 154 157 157 153 146 141 138 133 128 123 119 118 117 114 112 110 106 103 99 95 91 88 85
198 198 197 191 184 178 171 167 167 166 165 163 162 163 163 162 162 160 157 156 157 158 154 146 141 139 135 130 125 122 119 116 113 111 108 105 102 98 94 91 88 85
198 202 197 186 180 177 174 169 166 164 163 165 166 166 164 164 163 159 157 158 158 157 154 148 143 140 137 133 129 125 120 115 111 110 108 105 102 98 96 92 88 84
197 197 187 181 179 178 174 169 164 163 164 166 168 168 166 165 164 158 156 157 156 155 154 151 146 142 139 136 132 127 122 117 113 111 109 107 104 100 97 93 88 85
191 186 182 181 178 173 170 168 166 165 166 166 168 170 169 166 163 159 156 155 155 155 156 155 150 145 142 140 134 128 124 120 117 114 112 110 107 103 98 94 90 85